This demonstration page uses our WeatherBlox Daily Observations layout. Learn more.

Left ArrowRight Arrow

39.12711, -84.51439

Hourly Observations for January 18, 2017

Temp ( °F °C ) Dew Point ( °F °C ) Humidity (%) Winds ( mph kmh ) Pressure ( in mb ) Visibility ( mi km ) Precip ( " mm )
12:53 am 00:53 Cloudy 45 7.2 42 5.6 90 90 SW 7 11 30.06 1018 10 16 0.00 0.00
1:12 am 01:12 Cloudy 46 8 41 5 82 82 WSW 10 17 30.06 1018 10 16 0.00 0.00
1:53 am 01:53 Cloudy 45 7.2 42 5.6 90 90 SW 9 15 30.07 1018 10 16 0.00 0.00
2:53 am 02:53 Cloudy with Light Rain 44 6.7 42 5.6 93 93 W 8 13 30.09 1019 9 14 0.00 0.00
3:53 am 03:53 Cloudy 43 6.1 40 4.4 89 89 W 15 24 30.11 1020 10 16 0.00 0.00
4:50 am 04:50 Cloudy 41 5 39 4 93 93 VRB 5 7 30.12 1020 10 16 0.00 0.00
4:53 am 04:53 Cloudy 41 5 39 3.9 93 93 NW 9 15 30.13 1020 10 16 0.00 0.00
5:07 am 05:07 Cloudy 41 5 38 3.3 89 89 W 9 15 30.15 1021 10 16 0.00 0.00
5:53 am 05:53 Cloudy 40 4.4 37 2.8 89 89 W 9 15 30.16 1021 10 16 0.00 0.00
6:11 am 06:11 Cloudy 40 4.4 38 3.3 93 93 VRB 3 6 30.15 1021 7 11 0.00 0.00
6:45 am 06:45 Cloudy 40 4.4 36 2.2 86 86 VRB 6 9 30.18 1022 10 16 0.00 0.00
6:53 am 06:53 Cloudy 39 3.9 36 2.2 89 89 W 7 11 30.17 1022 10 16 0.00 0.00
7:23 am 07:23 Cloudy 39 3.9 35 1.7 86 86 WNW 5 7 30.18 1022 10 16 0.00 0.00
7:53 am 07:53 Cloudy 40 4.4 35 1.7 83 83 W 7 11 30.19 1022 10 16 0.00 0.00
8:53 am 08:53 Cloudy 39 3.9 36 2.2 89 89 W 8 13 30.21 1023 10 16 0.00 0.00
9:53 am 09:53 Cloudy 40 4.4 36 2.2 86 86 W 8 13 30.22 1023 10 16 0.00 0.00
10:01 am 10:01 Cloudy 40 4.4 36 2.2 86 86 W 9 15 30.21 1023 10 16 0.00 0.00
10:53 am 10:53 Cloudy 40 4.4 36 2.2 86 86 W 6 9 30.24 1024 10 16 0.00 0.00
11:53 am 11:53 Cloudy 41 5 36 2.2 82 82 W 13 20 30.24 1024 10 16 0.00 0.00
12:53 pm 12:53 Cloudy 41 5 36 2.2 82 82 WSW 7 11 30.21 1023 10 16 0.00 0.00
1:53 pm 13:53 Cloudy 42 5.6 36 2.2 79 79 W 8 13 30.19 1023 10 16 0.00 0.00
2:53 pm 14:53 Cloudy 43 6.1 36 2.2 76 76 W 5 7 30.19 1022 10 16 0.00 0.00
3:53 pm 15:53 Cloudy 43 6.1 37 2.8 80 80 WSW 7 11 30.17 1022 10 16 0.00 0.00
4:53 pm 16:53 Cloudy 42 5.6 37 2.8 82 82 SSW 8 13 30.16 1022 10 16 0.00 0.00
5:53 pm 17:53 Cloudy 42 5.6 37 2.8 82 82 S 5 7 30.15 1021 10 16 0.00 0.00
6:53 pm 18:53 Cloudy 42 5.6 37 2.8 82 82 SW 3 6 30.17 1022 10 16 0.00 0.00
7:53 pm 19:53 Cloudy 42 5.6 36 2.2 79 79 SW 5 7 30.17 1022 10 16 0.00 0.00
8:53 pm 20:53 Cloudy 41 5 37 2.8 86 86 WSW 7 11 30.19 1022 10 16 0.00 0.00
9:53 pm 21:53 Cloudy 41 5 37 2.8 86 86 S 5 7 30.17 1022 10 16 0.00 0.00
10:53 pm 22:53 Cloudy 41 5 37 2.8 86 86 SSW 3 6 30.16 1021 10 16 0.00 0.00
11:53 pm 23:53 Cloudy 41 5 38 3.3 89 89 SSE 3 6 30.15 1021 10 16 0.00 0.00

Powered by AerisWeather